Orlando, FL

3:55 AM EST on December 04, 2016 (GMT -0500)
Orlando International

Weather History for KMCO - March, 2013

Change the Weather History Date:

Tuesday, March 26, 2013

  Actual Average Record
Temperature  
Mean Temperature 55 °F 68 °F  
Max Temperature 62 °F 79 °F 94 °F (1929)
Min Temperature 47 °F 57 °F 38 °F (1894)
Degree Days  
Heating Degree Days 10 1  
Month to date heating degree days 121 54  
Since 1 July heating degree days 433 553  
Cooling Degree Days 0 4  
Month to date cooling degree days 45 95  
Year to date cooling degree days 245 199  
Growing Degree Days 5 (Base 50)    
Moisture  
Dew Point 27 °F    
Average Humidity 38    
Maximum Humidity 56    
Minimum Humidity 19    
Precipitation  
Precipitation 0.00 in 0.13 in 3.20 in (1987)
Month to date precipitation 1.27 3.12  
Year to date precipitation 2.18 7.85  
Sea Level Pressure  
Sea Level Pressure 30.14 in    
Wind  
Wind Speed 15 mph (NW)    
Max Wind Speed 26 mph    
Max Gust Speed 33 mph    
Visibility 10 miles    
Events      
T = Trace of Precipitation, MM = Missing Value Source: NWS Daily Summary

Daily Weather History Graph

Daily Weather History Graph

Search for Another Location

Airport or City:

Trip Planner

Search our weather history database for the weather conditions in past years. The results will help you decide how hot, cold, wet, or windy it might be!

Date:

Astronomy

Mar. 26, 2013 Rise Set
Actual Time 7:21 AM EDT 7:40 PM EDT
Civil Twilight 6:58 AM EDT 8:03 PM EDT
Nautical Twilight 6:30 AM EDT 8:31 PM EDT
Astronomical Twilight 6:03 AM EDT 8:59 PM EDT
Moon 7:13 PM EDT (3/26) 6:36 AM EDT (3/26)
Length of Visible Light 13h 05m
Length of Day
12h 18m
Waxing Gibbous, 99% of the Moon is Illuminated
Mar 26
Waxing Gibbous
Mar 27
Full
Apr 3
Last Quarter
Apr 10
New
Apr 18
First Quarter

Hourly Weather History & Observations

Time (EDT) Temp. Dew Point Humidity Pressure Visibility Wind Dir Wind Speed Gust Speed Precip Events Conditions
12:53 AM 55.9 °F 37.9 °F 51% 30.05 in 10.0 mi NW 10.4 mph - N/A   Mostly Cloudy
1:53 AM 57.0 °F 41.0 °F 55% 30.06 in 10.0 mi WNW 11.5 mph - N/A   Mostly Cloudy
2:53 AM 55.9 °F 32.0 °F 40% 30.05 in 10.0 mi NNW 18.4 mph 21.9 mph N/A   Mostly Cloudy
3:53 AM 55.0 °F 26.1 °F 33% 30.05 in 10.0 mi NNW 19.6 mph 24.2 mph N/A   Mostly Cloudy
4:53 AM 52.0 °F 23.0 °F 32% 30.07 in 10.0 mi NNW 21.9 mph 27.6 mph N/A   Scattered Clouds
5:53 AM 50.0 °F 21.0 °F 32% 30.09 in 10.0 mi NW 17.3 mph - N/A   Partly Cloudy
6:53 AM 48.9 °F 24.1 °F 38% 30.12 in 10.0 mi NW 10.4 mph - N/A   Scattered Clouds
7:53 AM 48.0 °F 25.0 °F 41% 30.13 in 10.0 mi NW 11.5 mph - N/A   Scattered Clouds
8:53 AM 50.0 °F 28.0 °F 43% 30.15 in 10.0 mi NNW 15.0 mph - N/A   Partly Cloudy
9:53 AM 50.0 °F 27.0 °F 41% 30.17 in 10.0 mi NNW 13.8 mph - N/A   Partly Cloudy
10:53 AM 52.0 °F 27.0 °F 38% 30.17 in 10.0 mi NW 15.0 mph - N/A   Clear
11:53 AM 55.0 °F 26.1 °F 33% 30.17 in 10.0 mi NW 16.1 mph - N/A   Clear
12:53 PM 57.0 °F 23.0 °F 27% 30.16 in 10.0 mi WNW 17.3 mph - N/A   Clear
1:53 PM 59.0 °F 19.0 °F 21% 30.15 in 10.0 mi West 21.9 mph 29.9 mph N/A   Clear
2:53 PM 60.1 °F 19.0 °F 20% 30.14 in 10.0 mi West 21.9 mph 32.2 mph N/A   Clear
3:53 PM 60.1 °F 19.9 °F 21% 30.12 in 10.0 mi WNW 21.9 mph 29.9 mph N/A   Clear
4:53 PM 60.1 °F 17.1 °F 19% 30.12 in 10.0 mi WNW 23.0 mph 31.1 mph N/A   Clear
5:53 PM 59.0 °F 21.0 °F 23% 30.13 in 10.0 mi WNW 16.1 mph 27.6 mph N/A   Clear
6:53 PM 55.9 °F 25.0 °F 30% 30.15 in 10.0 mi WNW 15.0 mph - N/A   Clear
7:53 PM 52.0 °F 28.9 °F 41% 30.18 in 10.0 mi West 9.2 mph 18.4 mph N/A   Clear
8:53 PM 51.1 °F 30.9 °F 46% 30.20 in 10.0 mi West 13.8 mph - N/A   Clear
9:53 PM 50.0 °F 32.0 °F 50% 30.23 in 10.0 mi WNW 9.2 mph - N/A   Clear
10:53 PM 48.9 °F 33.1 °F 54% 30.25 in 10.0 mi WNW 9.2 mph - N/A   Clear
11:53 PM 48.0 °F 33.1 °F 56% 30.25 in 10.0 mi WNW 9.2 mph - N/A   Clear